| time (UTC) | temp F | wind direction | speed knots | gust knots | rain 1hr in | rain 24hr in | rain mn in | humidity % | barometer mb |
| 20260504081016 | 51 | 276 | 0.0 | 1.7 | 0.00 | 0.00 | 0.00 | 73 | 1002.8 |
| 20260504050015 | 58 | 240 | 3.5 | 9.6 | 0.00 | 0.00 | 0.00 | 63 | 1004.6 |
| 20260504045016 | 57 | 253 | 2.6 | 8.7 | 0.00 | 0.00 | 0.00 | 63 | 1004.6 |
| 20260504044015 | 57 | 248 | 1.7 | 7.0 | 0.00 | 0.00 | 0.00 | 64 | 1004.6 |
| 20260504043015 | 57 | 231 | 1.7 | 6.1 | 0.00 | 0.00 | 0.00 | 64 | 1004.6 |
| 20260504042016 | 57 | 252 | 0.9 | 5.2 | 0.00 | 0.00 | 0.00 | 64 | 1004.6 |
| 20260504041036 | 58 | 244 | 0.9 | 4.3 | 0.00 | 0.00 | 0.00 | 63 | 1004.6 |
| 20260504040016 | 58 | 235 | 1.7 | 4.3 | 0.00 | 0.00 | 0.00 | 63 | 1004.7 |
| 20260504035036 | 58 | 214 | 1.7 | 5.2 | 0.00 | 0.00 | 0.00 | 62 | 1004.7 |
| 20260504034016 | 59 | 219 | 1.7 | 6.1 | 0.00 | 0.00 | 0.00 | 62 | 1004.7 |
| 20260504033017 | 59 | 210 | 1.7 | 4.3 | 0.00 | 0.00 | 0.00 | 61 | 1004.8 |
| 20260504032015 | 59 | 217 | 1.7 | 6.1 | 0.00 | 0.00 | 0.00 | 61 | 1004.9 |
| 20260504031015 | 60 | 206 | 1.7 | 4.3 | 0.00 | 0.00 | 0.00 | 60 | 1005.0 |
| 20260504030015 | 60 | 224 | 2.6 | 7.0 | 0.00 | 0.00 | 0.00 | 59 | 1005.1 |
| 20260504025015 | 60 | 175 | 1.7 | 4.3 | 0.00 | 0.00 | 0.00 | 59 | 1005.1 |
| 20260504024036 | 60 | 183 | 0.9 | 3.5 | 0.00 | 0.00 | 0.00 | 58 | 1005.1 |
| 20260504023036 | 61 | 206 | 0.9 | 4.3 | 0.00 | 0.00 | 0.00 | 57 | 1005.0 |
| 20260504022015 | 61 | 222 | 2.6 | 6.1 | 0.00 | 0.00 | 0.00 | 57 | 1004.9 |
| 20260504021036 | 61 | 226 | 0.9 | 3.5 | 0.00 | 0.00 | 0.00 | 56 | 1004.8 |
| 20260504020016 | 62 | 220 | 0.9 | 3.5 | 0.00 | 0.00 | 0.00 | 55 | 1004.8 |
| 20260504015015 | 62 | 239 | 0.9 | 4.3 | 0.00 | 0.00 | 0.00 | 55 | 1004.8 |
| 20260504014016 | 62 | 239 | 0.9 | 3.5 | 0.00 | 0.00 | 0.00 | 54 | 1004.6 |
| 20260504013016 | 63 | 233 | 1.7 | 5.2 | 0.00 | 0.00 | 0.00 | 53 | 1004.6 |
| 20260504012016 | 63 | 227 | 0.9 | 3.5 | 0.00 | 0.00 | 0.00 | 52 | 1004.4 |
| 20260504011016 | 64 | 221 | 0.9 | 3.5 | 0.00 | 0.00 | 0.00 | 50 | 1004.3 |
| 20260504010015 | 65 | 226 | 1.7 | 6.1 | 0.00 | 0.00 | 0.00 | 49 | 1004.2 |
| 20260504005015 | 66 | 229 | 1.7 | 7.0 | 0.00 | 0.00 | 0.00 | 47 | 1004.3 |
| 20260504004015 | 67 | 243 | 1.7 | 5.2 | 0.00 | 0.00 | 0.00 | 46 | 1004.4 |
| 20260504003015 | 68 | 252 | 1.7 | 6.1 | 0.00 | 0.00 | 0.00 | 44 | 1004.4 |
| 20260504002015 | 68 | 250 | 1.7 | 5.2 | 0.00 | 0.00 | 0.00 | 44 | 1004.3 |
| 20260504001015 | 69 | 283 | 3.5 | 11.3 | 0.00 | 0.00 | 0.00 | 43 | 1004.4 |
| 20260504000037 | 69 | 289 | 3.5 | 12.2 | 0.00 | 0.00 | 0.00 | 43 | 1004.4 |
| 20260503235019 | 69 | 281 | 4.3 | 16.5 | 0.00 | 0.00 | 0.00 | 42 | 1004.3 |
| 20260503234016 | 69 | 271 | 3.5 | 8.7 | 0.00 | 0.00 | 0.00 | 42 | 1004.3 |
| 20260503233015 | 69 | 258 | 6.1 | 13.9 | 0.00 | 0.00 | 0.00 | 42 | 1004.4 |
| 20260503232015 | 70 | 260 | 6.1 | 14.8 | 0.00 | 0.00 | 0.00 | 42 | 1004.5 |
| 20260503231015 | 70 | 268 | 4.3 | 12.2 | 0.00 | 0.00 | 0.00 | 41 | 1004.5 |
| 20260503230035 | 69 | 269 | 3.5 | 8.7 | 0.00 | 0.00 | 0.00 | 42 | 1004.5 |
| 20260503225016 | 69 | 275 | 7.8 | 13.9 | 0.00 | 0.00 | 0.00 | 42 | 1004.6 |
| 20260503224015 | 69 | 228 | 6.1 | 14.8 | 0.00 | 0.00 | 0.00 | 41 | 1004.6 |
| 20260503223015 | 69 | 239 | 3.5 | 11.3 | 0.00 | 0.00 | 0.00 | 42 | 1004.6 |
| 20260503222015 | 69 | 211 | 3.5 | 13.0 | 0.00 | 0.00 | 0.00 | 42 | 1004.7 |
| 20260503221015 | 69 | 199 | 7.0 | 13.0 | 0.00 | 0.00 | 0.00 | 41 | 1004.8 |
| 20260503220015 | 68 | 209 | 6.1 | 13.9 | 0.00 | 0.00 | 0.00 | 41 | 1005.0 |
| 20260503215015 | 68 | 237 | 5.2 | 16.5 | 0.00 | 0.00 | 0.00 | 42 | 1005.0 |
| 20260503214015 | 68 | 221 | 6.1 | 15.6 | 0.00 | 0.00 | 0.00 | 42 | 1005.2 |
| 20260503213016 | 68 | 241 | 7.0 | 15.6 | 0.00 | 0.00 | 0.00 | 41 | 1005.3 |
| 20260503212035 | 67 | 233 | 7.0 | 17.4 | 0.00 | 0.00 | 0.00 | 41 | 1005.5 |
| 20260503211035 | 67 | 262 | 6.1 | 13.9 | 0.00 | 0.00 | 0.00 | 42 | 1005.6 |
| 20260503210015 | 66 | 245 | 8.7 | 21.7 | 0.00 | 0.00 | 0.00 | 41 | 1005.7 |
| 20260503205015 | 66 | 225 | 4.3 | 16.5 | 0.00 | 0.00 | 0.00 | 43 | 1005.9 |
| 20260503204015 | 65 | 207 | 7.8 | 20.0 | 0.00 | 0.00 | 0.00 | 42 | 1006.2 |
| 20260503203016 | 64 | 229 | 7.0 | 16.5 | 0.00 | 0.00 | 0.00 | 43 | 1006.4 |
| 20260503202018 | 64 | 207 | 7.8 | 18.2 | 0.00 | 0.00 | 0.00 | 43 | 1006.8 |
| 20260503201016 | 65 | 204 | 7.0 | 17.4 | 0.00 | 0.00 | 0.00 | 45 | 1006.9 |
| 20260503200038 | 64 | 215 | 7.8 | 21.7 | 0.00 | 0.00 | 0.00 | 47 | 1007.0 |
| 20260503195056 | 63 | 216 | 7.8 | 23.5 | 0.00 | 0.00 | 0.00 | 49 | 1007.3 |
| 20260503194038 | 62 | 204 | 9.6 | 20.0 | 0.00 | 0.00 | 0.00 | 50 | 1007.5 |
| 20260503193018 | 62 | 204 | 6.1 | 17.4 | 0.00 | 0.00 | 0.00 | 51 | 1007.7 |
| 20260503192016 | 61 | 172 | 7.8 | 17.4 | 0.00 | 0.00 | 0.00 | 52 | 1007.7 |
| 20260503191017 | 61 | 172 | 7.8 | 18.2 | 0.00 | 0.00 | 0.00 | 52 | 1007.8 |
| 20260503190018 | 60 | 176 | 7.8 | 18.2 | 0.00 | 0.00 | 0.00 | 51 | 1007.7 |
| 20260503185017 | 61 | 169 | 8.7 | 17.4 | 0.00 | 0.00 | 0.00 | 50 | 1008.0 |
| 20260503184018 | 60 | 187 | 7.0 | 22.6 | 0.00 | 0.00 | 0.00 | 50 | 1008.2 |
| 20260503183017 | 59 | 187 | 7.0 | 19.1 | 0.00 | 0.00 | 0.00 | 53 | 1008.4 |
| 20260503182017 | 58 | 170 | 8.7 | 25.2 | 0.00 | 0.00 | 0.00 | 54 | 1008.7 |
| 20260503181017 | 57 | 190 | 7.8 | 20.0 | 0.00 | 0.00 | 0.00 | 56 | 1008.8 |
| 20260503180017 | 57 | 156 | 8.7 | 17.4 | 0.00 | 0.00 | 0.00 | 57 | 1009.0 |
| 20260503175038 | 57 | 167 | 7.8 | 15.6 | 0.00 | 0.00 | 0.00 | 58 | 1009.4 |
| 20260503174037 | 57 | 185 | 7.0 | 26.1 | 0.00 | 0.00 | 0.00 | 58 | 1009.7 |
| 20260503173017 | 57 | 189 | 7.8 | 18.2 | 0.00 | 0.00 | 0.00 | 58 | 1010.0 |
| 20260503172016 | 57 | 199 | 7.0 | 15.6 | 0.00 | 0.00 | 0.00 | 59 | 1010.3 |
| 20260503171018 | 55 | 196 | 6.1 | 14.8 | 0.00 | 0.00 | 0.00 | 62 | 1010.6 |
| 20260503131017 | 49 | 238 | 4.3 | 10.4 | 0.00 | 0.01 | 0.00 | 61 | 1012.8 |